,

(GMT )
Le Puy

Weather History for LFHP - December, 2012

Change the Weather History Date:

Friday, December 28, 2012

  Actual Average (WUND) Record (WUND)
Temperature  
Mean Temperature 39 °F -  
Max Temperature 46 °F - - (-1)
Min Temperature 32 °F - - (-1)
Degree Days  
Heating Degree Days 26    
Moisture  
Dew Point 34 °F    
Average Humidity 82    
Maximum Humidity 100    
Minimum Humidity 56    
Precipitation  
Precipitation 0.00 in - - ()
Sea Level Pressure  
Sea Level Pressure 30.37 in    
Wind  
Wind Speed 5 mph ()    
Max Wind Speed 12 mph    
Max Gust Speed -    
Visibility 6.4 miles    
Events      
Averages and records for this station are not official NWS values.
T = Trace of Precipitation, MM = Missing Value Source: Averaged Metar Reports

Daily Weather History Graph

Daily Weather History Graph

Search for Another Location

Airport or City:

Astronomy

Dec. 28, 2012 Rise Set
Actual Time 8:23 AM CET 5:10 PM CET
Civil Twilight 7:49 AM CET 5:44 PM CET
Nautical Twilight 7:11 AM CET 6:21 PM CET
Astronomical Twilight 6:36 AM CET 6:57 PM CET
Moon 5:35 PM CET 8:04 AM CET
Length of Visible Light 9h 55m
Length of Day
8h 47m
Full, 100% of the Moon is Illuminated
Dec 28
Full
Jan 5
Last Quarter
Jan 11
New
Jan 19
First Quarter
Jan 27
Full

Hourly Weather History & Observations

Time (CET) Temp. Windchill Dew Point Humidity Pressure Visibility Wind Dir Wind Speed Gust Speed Precip Events Conditions
12:00 AM 41.0 °F 34.7 °F 30.2 °F 65% 30.33 in 6.2 mi WNW 10.4 mph - N/A   Overcast
12:30 AM 41.0 °F 34.3 °F 30.2 °F 65% 30.33 in 6.2 mi WNW 11.5 mph - N/A   Overcast
1:00 AM 41 °F - 31 °F 56%  in 12 mi WNW 8.1 mph - -   Clear
1:00 AM 41.0 °F 35.8 °F 30.2 °F 65% 30.33 in 6.2 mi WNW 8.1 mph - N/A   Overcast
1:30 AM 41.0 °F 37.1 °F 32.0 °F 70% 30.33 in 6.2 mi West 5.8 mph - N/A   Overcast
2:00 AM 41.0 °F 36.4 °F 30.2 °F 65% 30.33 in 6.2 mi WNW 6.9 mph - N/A   Overcast
2:30 AM 41.0 °F 35.2 °F 30.2 °F 65% 30.33 in 6.2 mi WNW 9.2 mph - N/A   Overcast
3:00 AM 39.2 °F 34.2 °F 30.2 °F 70% 30.36 in 6.2 mi NW 6.9 mph - N/A   Overcast
3:30 AM 39.2 °F 37.0 °F 30.2 °F 70% 30.36 in 6.2 mi Variable 3.5 mph - N/A   Mostly Cloudy
4:00 AM 37.4 °F - 30.2 °F 75% 30.36 in 6.2 mi NNW 2.3 mph - N/A   Partly Cloudy
4:30 AM 37.4 °F - 32.0 °F 81% 30.36 in 6.2 mi Variable 1.2 mph - N/A   Overcast
5:00 AM 39.2 °F 35.9 °F 30.2 °F 70% 30.36 in 6.2 mi WNW 4.6 mph - N/A   Mostly Cloudy
5:30 AM 37.4 °F 34.9 °F 30.2 °F 75% 30.36 in 6.2 mi West 3.5 mph - N/A   Scattered Clouds
6:00 AM 35.6 °F 32.8 °F 32.0 °F 87% 30.36 in 6.2 mi SW 3.5 mph - N/A   Partly Cloudy
6:30 AM 35.6 °F 32.8 °F 32.0 °F 87% 30.36 in 6.2 mi WSW 3.5 mph - N/A   Mostly Cloudy
7:00 AM 35 °F - 31 °F 81%  in 12 mi SW 2.3 mph - -   Clear
7:00 AM 35.6 °F - 32.0 °F 87% 30.39 in 6.2 mi SW 2.3 mph - N/A   Mostly Cloudy
7:30 AM 37.4 °F - 32.0 °F 81% 30.39 in 6.2 mi Variable 2.3 mph - N/A   Overcast
8:00 AM 35.6 °F - 32.0 °F 87% 30.39 in 6.2 mi Calm Calm - N/A   Mostly Cloudy
8:30 AM 35.6 °F - 32.0 °F 87% 30.39 in 6.2 mi Variable 1.2 mph - N/A   Mostly Cloudy
9:00 AM 37.4 °F - 33.8 °F 87% 30.42 in 6.2 mi Variable 1.2 mph - N/A   Mostly Cloudy
9:30 AM 37.4 °F 34.9 °F 33.8 °F 87% 30.42 in 6.2 mi Variable 3.5 mph - N/A   Mostly Cloudy
10:00 AM 39.2 °F 33.6 °F 33.8 °F 81% 30.42 in 6.2 mi NNW 8.1 mph - N/A   Mostly Cloudy
10:30 AM 39.2 °F 35.0 °F 37.4 °F 93% 30.42 in 6.2 mi NNW 5.8 mph - N/A   Mostly Cloudy
11:00 AM 39.2 °F - 37.4 °F 93% 30.42 in 6.2 mi Variable 2.3 mph - N/A   Overcast
11:30 AM 41.0 °F - 35.6 °F 81% 30.42 in 6.2 mi Calm Calm - N/A   Overcast
12:00 PM 42.8 °F - 35.6 °F 76% 30.42 in 6.2 mi Variable 2.3 mph - N/A   Mostly Cloudy
12:30 PM 42.8 °F - 35.6 °F 76% 30.39 in 6.2 mi Calm Calm - N/A   Overcast
1:00 PM 46 °F - 37 °F 62%  in 12 mi NNE 2.3 mph - -   Clear
1:30 PM 44.6 °F - 37.4 °F 76% 30.39 in 6.2 mi Variable 2.3 mph - N/A   Overcast
2:00 PM 44.6 °F - 37.4 °F 76% 30.39 in 6.2 mi Variable 2.3 mph - N/A   Overcast
2:30 PM 44.6 °F 41.4 °F 37.4 °F 76% 30.39 in 6.2 mi ESE 5.8 mph - N/A   Overcast
3:00 PM 44.6 °F 42.2 °F 37.4 °F 76% 30.39 in 6.2 mi ESE 4.6 mph - N/A   Mostly Cloudy
3:30 PM 44.6 °F 42.2 °F 37.4 °F 76% 30.39 in 6.2 mi ESE 4.6 mph - N/A   Overcast
4:00 PM 42.8 °F 41.1 °F 37.4 °F 81% 30.39 in 6.2 mi Variable 3.5 mph - N/A   Mostly Cloudy
4:30 PM 42.8 °F 41.1 °F 37.4 °F 81% 30.39 in 6.2 mi SE 3.5 mph - N/A   Overcast
5:30 PM 42.8 °F - 37.4 °F 81% 30.39 in 6.2 mi Calm Calm - N/A   Overcast
6:30 PM 37.4 °F - 35.6 °F 93% 30.36 in 6.2 mi WSW 2.3 mph - N/A   Unknown
7:00 PM 37 °F - 35 °F 91%  in 3 mi SW 1.2 mph - -   Mist
7:00 PM 37.4 °F - 35.6 °F 93% 30.36 in 5.0 mi SW 1.2 mph - N/A   Unknown
7:30 PM 37.4 °F - 35.6 °F 93% 30.36 in 6.2 mi WSW 2.3 mph - N/A   Unknown
8:00 PM 35.6 °F - 33.8 °F 93% 30.36 in 6.2 mi Variable 2.3 mph - N/A   Unknown
8:30 PM 33.8 °F 30.8 °F 33.8 °F 100% 30.36 in 5.6 mi SW 3.5 mph - N/A   Unknown
9:00 PM 33.8 °F 30.8 °F 33.8 °F 100% 30.36 in 6.2 mi SW 3.5 mph - N/A   Unknown
9:30 PM 33.8 °F - 32.0 °F 93% 30.36 in 5.6 mi WSW 2.3 mph - N/A   Unknown
10:00 PM 32.0 °F 28.7 °F 32.0 °F 100% 30.36 in 6.2 mi SW 3.5 mph - N/A   Unknown
10:30 PM 32.0 °F 27.5 °F 32.0 °F 100% 30.33 in 6.2 mi WSW 4.6 mph - N/A   Unknown
11:00 PM 32.0 °F - 32.0 °F 100% 30.33 in 6.2 mi Calm Calm - N/A   Unknown
11:30 PM 32.0 °F - 32.0 °F 100% 30.33 in 6.2 mi Calm Calm - N/A   Unknown